User: anonymous   Login
Location: Unspecified
(0.0000°N, 0.0000°E)
Time: 12:09:17
(UTC+00:00)
Language:

Optus B3 - Orbit

View from above orbital plane
View from above orbital plane
View from above satellite
View from above satellite

Ground track
Ground track

The orbit data is extracted from the following two-line orbital elements,

1 23227U 94055A   16210.37060877 -.00000102  00000-0  00000+0 0  9990
2 23227   6.8815  52.6055 0003191  84.5977 106.8633  1.00272193 80238
Epoch (UTC): 28 July 2016 08:53:40
Eccentricity: 0.0003191
inclination: 6.8815°
perigee height: 35772 km
apogee height: 35799 km
right ascension of ascending node: 52.6055°
argument of perigee: 84.5977°
revolutions per day: 1.00272193
mean anomaly at epoch: 106.8633°
orbit number at epoch: 8023

The dashed part of the orbit path shows where the satellite is in the earth's shadow,  

DLR